Location: Burbank
(38.7788°N, 114.0429°W)
Time: 13:40:09
(UTC+00:00)

Vanguard 2 Rocket - Pass Details

Date: 18 May 2026
Orbit: 553 x 3286 km, 32.9° (Epoch: 6 June)

Event Time Altitude Azimuth Distance (km) Brightness Sun altitude
Rises 20:47:18 0° 271° (W) 5,737 11.2 65.0°
Reaches altitude 10° 20:50:34 10° 269° (W) 5,027 11.1 64.6°
Maximum altitude 21:06:28 68° 191° (S) 3,281 11.5 62.2°
Drops below altitude 10° 21:26:23 10° 114° (ESE) 6,105 11.0 58.9°
Sets 21:30:51 0° 112° (ESE) 6,969 11.2 58.2°
